LNI112 WIII-OEJN

Flight info

Callsign LNI112
Flight time N/A
Altitude 34000
Route RIMTI M766 KAT P570 TVM UL425 ASPUX L425 GOBRO DCT AMBIT L425 BOSUT
Aircraft A333/H-SDE3GHIJ2J3J5M1RVWXY/LB2D1

Departure

Time N/A
Airport Soekarno-Hatta International Airport (WIII)

Arrival

Time 2026-05-01 09:11
Airport King Abdulaziz International Airport (OEJN)
Time Latitude Longitude Altitude Speed Heading
2026-05-01 07:23 20.02943 50.25179 33875 ft 444 kts 274°
2026-05-01 07:24 20.04010 50.15391 33879 ft 444 kts 274°
2026-05-01 07:24 20.04719 50.08856 33892 ft 444 kts 274°
2026-05-01 07:25 20.05425 50.02330 33881 ft 444 kts 274°
2026-05-01 07:25 20.06129 49.95798 33875 ft 444 kts 274°
2026-05-01 07:26 20.06825 49.89318 33879 ft 444 kts 274°
2026-05-01 07:26 20.07522 49.82801 33879 ft 444 kts 274°
2026-05-01 07:27 20.08219 49.76272 33878 ft 444 kts 274°
2026-05-01 07:27 20.08911 49.69758 33881 ft 443 kts 274°
2026-05-01 07:28 20.09601 49.63239 33886 ft 443 kts 274°
2026-05-01 07:28 20.10287 49.56744 33880 ft 442 kts 274°
2026-05-01 07:29 20.10970 49.50248 33884 ft 442 kts 274°
2026-05-01 07:29 20.11650 49.43760 33885 ft 441 kts 274°
2026-05-01 07:30 20.12326 49.37280 33882 ft 441 kts 274°
2026-05-01 07:30 20.13000 49.30796 33884 ft 441 kts 274°
2026-05-01 07:31 20.13672 49.24316 33885 ft 440 kts 274°
2026-05-01 07:32 20.15340 49.08119 33888 ft 440 kts 274°
2026-05-01 07:33 20.16333 48.98409 33891 ft 440 kts 274°
2026-05-01 07:33 20.17318 48.88720 33885 ft 438 kts 274°
2026-05-01 07:34 20.18295 48.79061 33889 ft 437 kts 274°
2026-05-01 07:35 20.18942 48.72627 33888 ft 437 kts 274°
2026-05-01 07:35 20.19588 48.66186 33887 ft 437 kts 274°
2026-05-01 07:36 20.20227 48.59788 33892 ft 438 kts 274°
2026-05-01 07:36 20.20873 48.53302 33890 ft 438 kts 274°
2026-05-01 07:37 20.21828 48.43666 33890 ft 438 kts 274°
2026-05-01 07:37 20.22463 48.37220 33891 ft 438 kts 274°
2026-05-01 07:38 20.23094 48.30774 33899 ft 437 kts 273°
2026-05-01 07:39 20.24028 48.21153 33891 ft 435 kts 273°
2026-05-01 07:39 20.24956 48.11542 33893 ft 435 kts 273°
2026-05-01 07:40 20.25572 48.05140 33900 ft 435 kts 273°
2026-05-01 07:40 20.26183 47.98769 33897 ft 435 kts 273°
2026-05-01 07:41 20.26793 47.92371 33898 ft 434 kts 273°
2026-05-01 07:42 20.27705 47.82777 33898 ft 434 kts 273°
2026-05-01 07:42 20.28309 47.76383 33901 ft 434 kts 273°
2026-05-01 07:43 20.28911 47.69987 33904 ft 434 kts 273°
2026-05-01 07:43 20.29809 47.60415 33910 ft 432 kts 273°
2026-05-01 07:44 20.30991 47.47703 33909 ft 431 kts 273°
2026-05-01 07:45 20.31579 47.41345 33915 ft 431 kts 273°
2026-05-01 07:45 20.32165 47.34989 33912 ft 431 kts 273°
2026-05-01 07:46 20.32748 47.28629 33918 ft 431 kts 273°
2026-05-01 07:47 20.33620 47.19083 33913 ft 432 kts 273°
2026-05-01 07:47 20.34198 47.12718 33917 ft 431 kts 273°
2026-05-01 07:48 20.35059 47.03192 33927 ft 430 kts 273°
2026-05-01 07:48 20.35629 46.96854 33921 ft 429 kts 273°
2026-05-01 07:49 20.36478 46.87362 33924 ft 429 kts 273°
2026-05-01 07:50 20.37038 46.81075 33928 ft 429 kts 273°
2026-05-01 07:50 20.37879 46.71575 33926 ft 429 kts 273°
2026-05-01 07:51 20.38437 46.65232 33924 ft 429 kts 273°
2026-05-01 07:52 20.39267 46.55735 33941 ft 429 kts 273°
2026-05-01 07:52 20.39817 46.49414 33932 ft 428 kts 273°
2026-05-01 07:53 20.40638 46.39938 33938 ft 427 kts 273°
2026-05-01 07:53 20.41177 46.33700 33938 ft 413 kts 272°
2026-05-01 07:54 20.41607 46.28729 33942 ft 400 kts 272°
2026-05-01 07:55 20.42359 46.19873 33937 ft 400 kts 272°
2026-05-01 07:56 20.43610 46.05079 33943 ft 401 kts 272°
2026-05-01 07:57 20.44356 45.96200 33954 ft 401 kts 272°
2026-05-01 07:58 20.45342 45.84385 33951 ft 401 kts 272°
2026-05-01 07:59 20.46320 45.72567 33945 ft 400 kts 272°
2026-05-01 08:00 20.47772 45.54829 33961 ft 400 kts 272°
2026-05-01 08:01 20.48731 45.42994 33977 ft 400 kts 272°
2026-05-01 08:02 20.49444 45.34119 33990 ft 401 kts 272°
2026-05-01 08:03 20.50154 45.25232 33995 ft 401 kts 272°
2026-05-01 08:03 20.49717 45.16467 34000 ft 395 kts 258°
2026-05-01 08:04 20.47497 45.04999 33987 ft 395 kts 256°
2026-05-01 08:05 20.45772 44.96414 33956 ft 395 kts 257°
2026-05-01 08:06 20.44063 44.87792 33959 ft 396 kts 257°
2026-05-01 08:07 20.41782 44.76302 33961 ft 396 kts 257°
2026-05-01 08:08 20.40065 44.67682 33955 ft 396 kts 257°
2026-05-01 08:09 20.37771 44.56208 33967 ft 395 kts 257°
2026-05-01 08:09 20.36623 44.50479 33958 ft 395 kts 257°
2026-05-01 08:10 20.34319 44.39017 33969 ft 397 kts 257°
2026-05-01 08:11 20.32003 44.27534 33974 ft 396 kts 257°
2026-05-01 08:12 20.30261 44.18921 33971 ft 396 kts 257°
2026-05-01 08:13 20.28519 44.10331 33972 ft 395 kts 257°
2026-05-01 08:13 20.26773 44.01750 33994 ft 395 kts 257°
2026-05-01 08:14 20.25608 43.96035 33982 ft 396 kts 257°
2026-05-01 08:14 20.24436 43.90295 33988 ft 396 kts 257°
2026-05-01 08:15 20.22685 43.81736 33997 ft 396 kts 257°
2026-05-01 08:16 20.21513 43.76014 33994 ft 395 kts 257°
2026-05-01 08:16 20.20338 43.70296 33999 ft 395 kts 257°
2026-05-01 08:17 20.19164 43.64588 34001 ft 395 kts 256°
2026-05-01 08:17 20.17987 43.58880 33997 ft 395 kts 256°
2026-05-01 08:18 20.16810 43.53179 33983 ft 395 kts 256°
2026-05-01 08:19 20.14441 43.41735 34011 ft 397 kts 256°
2026-05-01 08:19 20.13252 43.36004 34001 ft 397 kts 256°
2026-05-01 08:20 20.12061 43.30276 34010 ft 396 kts 256°
2026-05-01 08:20 20.10869 43.24553 34020 ft 396 kts 256°
2026-05-01 08:21 20.09675 43.18826 34018 ft 396 kts 256°
2026-05-01 08:21 20.08481 43.13113 34029 ft 396 kts 256°
2026-05-01 08:22 20.07284 43.07397 34026 ft 396 kts 256°
2026-05-01 08:22 20.06087 43.01686 34023 ft 396 kts 256°
2026-05-01 08:23 20.04891 42.95990 34030 ft 397 kts 256°
2026-05-01 08:23 20.03678 42.90224 34037 ft 397 kts 256°
2026-05-01 08:24 20.02471 42.84528 34038 ft 397 kts 256°
2026-05-01 08:24 20.01253 42.78802 34045 ft 397 kts 256°
2026-05-01 08:25 20.00069 42.73248 34047 ft 397 kts 256°
2026-05-01 08:25 19.98848 42.67525 34048 ft 397 kts 256°
2026-05-01 08:26 19.98075 42.61718 34041 ft 399 kts 269°
2026-05-01 08:26 19.98557 42.55820 34041 ft 402 kts 274°
2026-05-01 08:27 19.99308 42.49922 34043 ft 403 kts 275°
2026-05-01 08:27 20.00100 42.44023 34038 ft 403 kts 275°
2026-05-01 08:28 20.00870 42.38119 34048 ft 404 kts 275°
2026-05-01 08:28 20.01622 42.32207 34045 ft 403 kts 275°
2026-05-01 08:29 20.02367 42.26292 34065 ft 403 kts 274°
2026-05-01 08:29 20.03105 42.20427 34060 ft 403 kts 274°
2026-05-01 08:30 20.03851 42.14481 34077 ft 403 kts 274°
2026-05-01 08:30 20.04585 42.08612 34092 ft 403 kts 274°
2026-05-01 08:31 20.05322 42.02712 34101 ft 403 kts 274°
2026-05-01 08:31 20.06057 41.96809 34094 ft 403 kts 274°
2026-05-01 08:32 20.06790 41.90901 34105 ft 403 kts 274°
2026-05-01 08:32 20.07521 41.85002 34116 ft 403 kts 274°
2026-05-01 08:33 20.08251 41.79090 34134 ft 403 kts 274°
2026-05-01 08:33 20.08977 41.73189 34148 ft 402 kts 274°
2026-05-01 08:34 20.09702 41.67290 34142 ft 402 kts 274°
2026-05-01 08:34 20.10423 41.61401 34152 ft 401 kts 274°
2026-05-01 08:35 20.11142 41.55511 34151 ft 402 kts 274°
2026-05-01 08:35 20.11860 41.49616 34154 ft 401 kts 274°
2026-05-01 08:36 20.12573 41.43740 34154 ft 400 kts 274°
2026-05-01 08:36 20.13284 41.37867 34141 ft 400 kts 274°
2026-05-01 08:37 20.13993 41.31991 34115 ft 400 kts 274°
2026-05-01 08:37 20.14694 41.26164 34121 ft 400 kts 274°
2026-05-01 08:37 20.15049 41.23200 33885 ft 411 kts 274°
2026-05-01 08:38 20.15413 41.20128 33612 ft 425 kts 274°
2026-05-01 08:38 20.15786 41.16982 33332 ft 432 kts 274°
2026-05-01 08:38 20.16166 41.13814 33079 ft 428 kts 274°
2026-05-01 08:38 20.16543 41.10688 32603 ft 425 kts 275°
2026-05-01 08:39 20.16917 41.07574 31995 ft 424 kts 275°
2026-05-01 08:39 20.17289 41.04466 31405 ft 423 kts 275°
2026-05-01 08:39 20.17659 41.01362 30899 ft 421 kts 275°
2026-05-01 08:39 20.18025 40.98290 30523 ft 415 kts 275°
2026-05-01 08:40 20.18738 40.92283 29694 ft 404 kts 275°
2026-05-01 08:40 20.19086 40.89335 29281 ft 398 kts 275°
2026-05-01 08:40 20.19427 40.86436 28898 ft 392 kts 275°
2026-05-01 08:41 20.19765 40.83574 28513 ft 387 kts 275°
2026-05-01 08:41 20.20097 40.80751 28127 ft 382 kts 275°
2026-05-01 08:41 20.20425 40.77959 27758 ft 379 kts 275°
2026-05-01 08:41 20.20752 40.75165 27384 ft 380 kts 275°
2026-05-01 08:42 20.21078 40.72371 26996 ft 381 kts 275°
2026-05-01 08:42 20.21456 40.69584 26605 ft 381 kts 280°
2026-05-01 08:42 20.22253 40.66890 26259 ft 383 kts 290°
2026-05-01 08:42 20.23349 40.64301 25870 ft 384 kts 293°
2026-05-01 08:43 20.24135 40.62610 25617 ft 384 kts 294°
2026-05-01 08:43 20.25799 40.59241 25112 ft 384 kts 296°
2026-05-01 08:43 20.26643 40.57583 24858 ft 384 kts 296°
2026-05-01 08:43 20.27923 40.55084 24455 ft 384 kts 296°
2026-05-01 08:44 20.29197 40.52590 24068 ft 383 kts 297°
2026-05-01 08:44 20.30463 40.50097 23692 ft 383 kts 297°
2026-05-01 08:44 20.31724 40.47595 23279 ft 382 kts 296°
2026-05-01 08:44 20.32974 40.45105 22861 ft 380 kts 296°
2026-05-01 08:45 20.34211 40.42633 22489 ft 377 kts 296°
2026-05-01 08:45 20.35441 40.40172 22119 ft 375 kts 296°
2026-05-01 08:45 20.36662 40.37723 21749 ft 373 kts 296°
2026-05-01 08:45 20.37878 40.35285 21368 ft 371 kts 296°
2026-05-01 08:46 20.39086 40.32862 21000 ft 370 kts 296°
2026-05-01 08:46 20.40286 40.30453 20618 ft 368 kts 296°
2026-05-01 08:46 20.41467 40.28084 20244 ft 366 kts 296°
2026-05-01 08:46 20.42657 40.25694 19901 ft 364 kts 296°
2026-05-01 08:47 20.43854 40.23287 19525 ft 362 kts 296°
2026-05-01 08:47 20.45016 40.20952 19179 ft 360 kts 296°
2026-05-01 08:47 20.46185 40.18598 18809 ft 359 kts 296°
2026-05-01 08:47 20.47347 40.16259 18465 ft 357 kts 297°
2026-05-01 08:48 20.48508 40.13924 18078 ft 355 kts 297°
2026-05-01 08:48 20.49661 40.11603 17696 ft 353 kts 296°
2026-05-01 08:48 20.50806 40.09298 17340 ft 351 kts 296°
2026-05-01 08:48 20.51948 40.06996 16988 ft 350 kts 296°
2026-05-01 08:49 20.53081 40.04713 16629 ft 348 kts 296°
2026-05-01 08:49 20.54211 40.02434 16270 ft 346 kts 296°
2026-05-01 08:49 20.55332 40.00172 15914 ft 344 kts 296°
2026-05-01 08:49 20.56445 39.97925 15555 ft 342 kts 296°
2026-05-01 08:50 20.57554 39.95687 15198 ft 340 kts 296°
2026-05-01 08:50 20.58657 39.93457 14850 ft 338 kts 296°
2026-05-01 08:50 20.59752 39.91244 14521 ft 337 kts 296°
2026-05-01 08:50 20.60843 39.89039 14239 ft 335 kts 295°
2026-05-01 08:51 20.61928 39.86844 13903 ft 334 kts 295°
2026-05-01 08:51 20.63010 39.84655 13517 ft 332 kts 295°
2026-05-01 08:51 20.64083 39.82485 13183 ft 330 kts 295°
2026-05-01 08:51 20.65150 39.80325 12831 ft 329 kts 295°
2026-05-01 08:52 20.66212 39.78173 12476 ft 327 kts 295°
2026-05-01 08:52 20.67269 39.76030 12128 ft 325 kts 295°
2026-05-01 08:52 20.68322 39.73895 11813 ft 325 kts 295°
2026-05-01 08:52 20.69374 39.71761 11493 ft 324 kts 294°
2026-05-01 08:53 20.70420 39.69639 11165 ft 322 kts 294°
2026-05-01 08:53 20.71449 39.67554 11022 ft 311 kts 294°
2026-05-01 08:53 20.72440 39.65546 10907 ft 299 kts 294°
2026-05-01 08:53 20.73393 39.63615 10774 ft 289 kts 294°
2026-05-01 08:54 20.74317 39.61737 10658 ft 282 kts 294°
2026-05-01 08:54 20.75217 39.59908 10512 ft 274 kts 293°
2026-05-01 08:54 20.76099 39.58113 10272 ft 272 kts 293°
2026-05-01 08:54 20.76976 39.56324 10014 ft 272 kts 293°
2026-05-01 08:55 20.77949 39.54589 9757 ft 275 kts 304°
2026-05-01 08:55 20.79387 39.53228 9486 ft 281 kts 327°
2026-05-01 08:55 20.81218 39.52475 9229 ft 284 kts 341°
2026-05-01 08:55 20.83141 39.51944 8983 ft 285 kts 343°
2026-05-01 08:56 20.85062 39.51448 8727 ft 283 kts 343°
2026-05-01 08:56 20.86971 39.50951 8470 ft 281 kts 343°
2026-05-01 08:56 20.88837 39.50459 8375 ft 271 kts 343°
2026-05-01 08:56 20.90633 39.49981 8276 ft 262 kts 342°
2026-05-01 08:57 20.92369 39.49516 8158 ft 255 kts 342°
2026-05-01 08:57 20.94094 39.49050 8046 ft 256 kts 342°
2026-05-01 08:57 20.95824 39.48580 7890 ft 257 kts 342°
2026-05-01 08:57 20.97527 39.48118 7669 ft 256 kts 342°
2026-05-01 08:58 20.99248 39.47652 7446 ft 255 kts 342°
2026-05-01 08:58 21.00965 39.47189 7213 ft 253 kts 342°
2026-05-01 08:58 21.02668 39.46728 7021 ft 252 kts 342°
2026-05-01 08:58 21.04369 39.46267 6801 ft 253 kts 342°
2026-05-01 08:59 21.06077 39.45805 6627 ft 251 kts 342°
2026-05-01 08:59 21.07765 39.45349 6398 ft 250 kts 343°
2026-05-01 08:59 21.09447 39.44894 6183 ft 248 kts 343°
2026-05-01 08:59 21.11105 39.44446 6052 ft 245 kts 342°
2026-05-01 09:00 21.12761 39.43998 6041 ft 244 kts 342°
2026-05-01 09:00 21.14403 39.43553 6039 ft 244 kts 343°
2026-05-01 09:00 21.16050 39.43106 6039 ft 244 kts 343°
2026-05-01 09:00 21.17702 39.42659 6039 ft 244 kts 343°
2026-05-01 09:01 21.19349 39.42213 6045 ft 244 kts 343°
2026-05-01 09:01 21.20991 39.41767 6041 ft 244 kts 342°
2026-05-01 09:01 21.22568 39.41155 6038 ft 239 kts 325°
2026-05-01 09:01 21.23862 39.40064 6036 ft 236 kts 314°
2026-05-01 09:02 21.25042 39.38848 6027 ft 236 kts 312°
2026-05-01 09:02 21.26212 39.37611 6030 ft 236 kts 312°
2026-05-01 09:02 21.27384 39.36377 5938 ft 235 kts 312°
2026-05-01 09:02 21.28554 39.35149 5669 ft 236 kts 313°
2026-05-01 09:03 21.29727 39.33924 5425 ft 235 kts 311°
2026-05-01 09:03 21.30888 39.32715 5219 ft 231 kts 312°
2026-05-01 09:03 21.32171 39.31672 4989 ft 234 kts 330°
2026-05-01 09:03 21.33665 39.30980 4759 ft 232 kts 336°
2026-05-01 09:04 21.35173 39.30391 4522 ft 230 kts 337°
2026-05-01 09:04 21.36680 39.29816 4272 ft 230 kts 338°
2026-05-01 09:04 21.38174 39.29242 4074 ft 226 kts 338°
2026-05-01 09:04 21.39633 39.28675 3895 ft 221 kts 339°
2026-05-01 09:05 21.41078 39.28112 3560 ft 222 kts 339°
2026-05-01 09:05 21.42517 39.27545 3331 ft 218 kts 340°
2026-05-01 09:05 21.43939 39.26987 3075 ft 218 kts 341°
2026-05-01 09:05 21.45360 39.26430 3009 ft 215 kts 341°
2026-05-01 09:06 21.46752 39.25886 3019 ft 211 kts 340°
2026-05-01 09:06 21.48136 39.25345 3008 ft 212 kts 341°
2026-05-01 09:06 21.49521 39.24813 3004 ft 211 kts 340°
2026-05-01 09:06 21.50886 39.24278 3009 ft 208 kts 341°
2026-05-01 09:07 21.52168 39.23771 2990 ft 183 kts 341°
2026-05-01 09:07 21.53321 39.23318 2773 ft 171 kts 341°
2026-05-01 09:07 21.54400 39.22893 2542 ft 160 kts 340°
2026-05-01 09:07 21.55409 39.22496 2307 ft 147 kts 340°
2026-05-01 09:08 21.56318 39.22135 2125 ft 133 kts 340°
2026-05-01 09:08 21.57173 39.21797 1964 ft 130 kts 340°
2026-05-01 09:08 21.58024 39.21461 1794 ft 131 kts 340°
2026-05-01 09:08 21.58886 39.21119 1635 ft 133 kts 339°
2026-05-01 09:09 21.59750 39.20778 1452 ft 131 kts 339°
2026-05-01 09:09 21.60608 39.20440 1279 ft 132 kts 338°
2026-05-01 09:09 21.61472 39.20097 1113 ft 133 kts 338°
2026-05-01 09:09 21.62337 39.19755 952 ft 132 kts 336°
2026-05-01 09:10 21.63188 39.19421 786 ft 129 kts 339°
2026-05-01 09:10 21.64036 39.19086 593 ft 130 kts 339°
2026-05-01 09:10 21.64890 39.18758 465 ft 131 kts 339°
2026-05-01 09:10 21.65734 39.18415 276 ft 128 kts 339°
2026-05-01 09:11 21.66561 39.18088 99 ft 129 kts 338°
2026-05-01 09:11 21.67377 39.17757 38 ft 115 kts 337°
2026-05-01 09:11 21.67947 39.17533 36 ft 56 kts 340°
2026-05-01 09:11 21.68175 39.17444 32 ft 26 kts 335°
2026-05-01 09:12 21.68320 39.17327 30 ft 25 kts 310°
2026-05-01 09:12 21.68374 39.17259 30 ft 8 kts 311°
2026-05-01 09:12 21.68413 39.17212 31 ft 9 kts 311°
2026-05-01 09:12 21.68435 39.17170 31 ft 3 kts 269°
2026-05-01 09:13 21.68426 39.17151 31 ft 1 kts 227°
2026-05-01 09:13 21.68415 39.17142 31 ft 2 kts 216°
2026-05-01 09:13 21.68397 39.17135 31 ft 3 kts 195°
2026-05-01 09:13 21.68374 39.17136 32 ft 3 kts 168°
2026-05-01 09:14 21.68334 39.17148 32 ft 8 kts 161°
2026-05-01 09:14 21.68278 39.17170 32 ft 9 kts 159°
2026-05-01 09:14 21.68203 39.17200 33 ft 14 kts 159°
2026-05-01 09:14 21.68105 39.17240 33 ft 16 kts 159°
2026-05-01 09:15 21.67998 39.17282 34 ft 17 kts 160°
2026-05-01 09:15 21.67883 39.17326 35 ft 18 kts 160°
2026-05-01 09:15 21.67774 39.17371 35 ft 16 kts 159°
2026-05-01 09:15 21.67678 39.17408 36 ft 14 kts 163°
2026-05-01 09:16 21.67660 39.17413 36 ft 1 kts 164°
2026-05-01 09:16 21.67653 39.17413 36 ft 1 kts 187°
2026-05-01 09:16 21.67622 39.17379 36 ft 2 kts 218°
2026-05-01 09:17 21.67579 39.17364 36 ft 11 kts 186°
2026-05-01 09:17 21.67499 39.17380 36 ft 12 kts 162°
2026-05-01 09:17 21.67322 39.17448 37 ft 15 kts 161°
2026-05-01 09:18 21.67223 39.17453 37 ft 14 kts 216°
2026-05-01 09:18 21.67085 39.17306 37 ft 15 kts 213°
2026-05-01 09:19 21.66898 39.17258 38 ft 12 kts 184°
2026-05-01 09:19 21.66858 39.17219 38 ft 6 kts 256°
2026-05-01 09:19 21.66853 39.17175 38 ft 4 kts 263°